C/2002 V2 ( LINEAR )

Japanese version
Home page
Updated on December 17, 2004

---------------------------------------------------------------------

* Profile

Discovery Date November 5, 2002
Magnitude 18.6 mag
Discoverer Lincoln Laboratory Near-Earth Asteroid Research project

* Orbital Elements

Epoch 2003 May 1.0 TT = JDT 2452760.5
T 2003 May 13.58732 TT                                  MPC
q   6.8121151            (2000.0)            P               Q
z  +0.0001957      Peri.  314.67196     +0.42022343     +0.90396496
 +/-0.0000115      Node    20.23438     +0.88376378     -0.42748846
e   0.9986667      Incl.  166.77617     +0.20584911     -0.01004833

* Finding Charts

* Magnitudes Graph

        m1 = 6.0 + 5 log d + 10.0 log r

---------------------------------------------------------------------

The orbital elements are published on M.P.E.C. 2003-E19.
The charts are made with StellaNavigator Ver.2.0 for Windows (AstroArts / ASCII).
The magnitudes graphs are made with Comet for Windows.

---------------------------------------------------------------------

Copyright(C) Seiichi Yoshida (comet@aerith.net). All rights reserved.